Antalya, Turkey

2:59 PM +03 on December 13, 2017 (GMT +0300)
Antalya

Weather History for LTAI - September, 2013

Change the Weather History Date:

Monday, September 9, 2013

  Actual Average Record
Temperature  
Mean Temperature 83 °F -  
Max Temperature 95 °F 85 °F 99 °F (2016)
Min Temperature 71 °F 64 °F 62 °F (1996)
Cooling Degree Days 18    
Growing Degree Days 33 (Base 50)    
Moisture  
Dew Point 43 °F    
Average Humidity 27    
Maximum Humidity 73    
Minimum Humidity 5    
Precipitation  
Precipitation 0.00 in 0.04 in - ()
Sea Level Pressure  
Sea Level Pressure 29.88 in    
Wind  
Wind Speed 9 mph ()    
Max Wind Speed 17 mph    
Max Gust Speed 21 mph    
Visibility 6.1 miles    
Events      
Averages and records for this station are not official NWS values.
T = Trace of Precipitation, MM = Missing Value Source: Averaged Metar Reports

Daily Weather History Graph

Daily Weather History Graph

Search for Another Location

Airport or City:

Trip Planner

Search our weather history database for the weather conditions in past years. The results will help you decide how hot, cold, wet, or windy it might be!

Date:

Astronomy

Sep. 09, 2013 Rise Set
Actual Time 6:34 AM EEST 7:13 PM EEST
Civil Twilight 6:08 AM EEST 7:39 PM EEST
Nautical Twilight 5:37 AM EEST 8:10 PM EEST
Astronomical Twilight 5:05 AM EEST 8:42 PM EEST
Moon 10:27 AM EEST (9/9) 9:23 PM EEST (9/9)
Length of Visible Light 13h 31m
Length of Day
12h 39m
Waxing Crescent, 16% of the Moon is Illuminated
Sep 9
Waxing Crescent
Sep 12
First Quarter
Sep 19
Full
Sep 27
Last Quarter
Oct 5
New

Hourly Weather History & Observations

Time (EEST) Temp. Heat Index Dew Point Humidity Pressure Visibility Wind Dir Wind Speed Gust Speed Precip Events Conditions
12:20 AM 73.4 °F - 62.6 °F 69% 29.86 in - NNW 6.9 mph - N/A   Clear
12:50 AM 71.6 °F - 62.6 °F 73% 29.86 in - NNW 5.8 mph - N/A   Clear
1:20 AM 73.4 °F - 59.0 °F 61% 29.86 in - NW 6.9 mph - N/A   Clear
1:50 AM 73.4 °F - 53.6 °F 50% 29.86 in - NW 9.2 mph - N/A   Clear
2:20 AM 73.4 °F - 42.8 °F 33% 29.86 in - NW 10.4 mph - N/A   Clear
2:50 AM 75.2 °F - 39.2 °F 27% 29.86 in - NW 11.5 mph - N/A   Clear
3:00 AM 75 °F - 37 °F 15% 29.83 in 6 mi NW 11.5 mph - -  
3:20 AM 75.2 °F - 37.4 °F 25% 29.86 in - NW 13.8 mph - N/A   Clear
3:50 AM 77.0 °F - 37.4 °F 24% 29.83 in - NW 16.1 mph - N/A   Clear
4:20 AM 77.0 °F - 37.4 °F 24% 29.83 in - NW 16.1 mph - N/A   Clear
4:50 AM 75.2 °F - 37.4 °F 25% 29.86 in - NW 12.7 mph - N/A   Clear
5:20 AM 75.2 °F - 37.4 °F 25% 29.86 in - NW 11.5 mph - N/A   Clear
5:50 AM 75.2 °F - 39.2 °F 27% 29.86 in - NW 12.7 mph - N/A   Clear
6:20 AM 75.2 °F - 37.4 °F 25% 29.86 in - NW 13.8 mph - N/A   Clear
6:50 AM 75.2 °F - 39.2 °F 27% 29.86 in - NW 13.8 mph - N/A   Clear
7:20 AM 75.2 °F - 39.2 °F 27% 29.89 in - NW 12.7 mph - N/A   Clear
7:50 AM 77.0 °F - 39.2 °F 26% 29.89 in - NW 11.5 mph - N/A   Clear
8:20 AM 78.8 °F - 39.2 °F 24% 29.89 in - NNW 11.5 mph - N/A   Clear
8:50 AM 82.4 °F - 39.2 °F 21% 29.89 in - NNW 12.7 mph - N/A   Clear
9:00 AM 82 °F - 39 °F 12% 29.88 in 6 mi NNW 12.7 mph - -  
9:20 AM 84.2 °F - 39.2 °F 20% 29.89 in - NW 16.1 mph - N/A   Clear
9:50 AM 84.2 °F - 39.2 °F 20% 29.89 in - NNW 17.3 mph - N/A   Clear
10:20 AM 86.0 °F - 39.2 °F 19% 29.89 in - NNW 16.1 mph - N/A   Clear
10:50 AM 87.8 °F - 39.2 °F 18% 29.89 in - NNW 13.8 mph - N/A   Clear
11:20 AM 89.6 °F - 37.4 °F 16% 29.89 in - NNW 12.7 mph - N/A   Clear
11:50 AM 89.6 °F - 37.4 °F 16% 29.89 in - North 11.5 mph - N/A   Clear
12:20 PM 91.4 °F - 35.6 °F 14% 29.89 in - North 6.9 mph - N/A   Clear
12:50 PM 91.4 °F - 35.6 °F 14% 29.89 in - NW 10.4 mph - N/A   Clear
1:20 PM 93.2 °F - 35.6 °F 13% 29.89 in - North 8.1 mph 20.7 mph N/A   Clear
1:50 PM 93.2 °F - 33.8 °F 12% 29.86 in 6.2 mi North 9.2 mph - N/A   Partly Cloudy
2:20 PM 93.2 °F - 33.8 °F 12% 29.86 in 6.2 mi NNE 10.4 mph - N/A   Partly Cloudy
2:50 PM 95.0 °F - 35.6 °F 12% 29.86 in 6.2 mi North 9.2 mph - N/A   Partly Cloudy
3:00 PM 94 °F - 33 °F 5% 29.85 in 6 mi North 9.2 mph - -   Scattered Clouds
3:20 PM 93.2 °F - 46.4 °F 20% 29.86 in 6.2 mi Variable 6.9 mph - N/A   Partly Cloudy
3:50 PM 87.8 °F 85.7 °F 53.6 °F 31% 29.86 in 6.2 mi SSW 15.0 mph - N/A   Partly Cloudy
4:20 PM 89.6 °F - 44.6 °F 21% 29.86 in 6.2 mi SSW 13.8 mph - N/A   Partly Cloudy
4:50 PM 89.6 °F - 41.0 °F 18% 29.86 in 6.2 mi SSW 11.5 mph - N/A   Partly Cloudy
5:20 PM 89.6 °F - 41.0 °F 18% 29.86 in 6.2 mi SSW 11.5 mph - N/A   Partly Cloudy
5:50 PM 87.8 °F - 42.8 °F 21% 29.86 in 6.2 mi SSW 9.2 mph - N/A   Partly Cloudy
6:20 PM 87.8 °F - 46.4 °F 24% 29.86 in 6.2 mi SSW 6.9 mph - N/A   Partly Cloudy
6:50 PM 86.0 °F - 50.0 °F 29% 29.89 in - SSW 4.6 mph - N/A   Clear
7:20 PM 82.4 °F - 51.8 °F 35% 29.89 in - WSW 3.5 mph - N/A   Clear
7:50 PM 80.6 °F 80.3 °F 53.6 °F 39% 29.89 in - WSW 3.5 mph - N/A   Clear
8:20 PM 77.0 °F - 55.4 °F 47% 29.92 in - Variable 2.3 mph - N/A   Clear
8:50 PM 77.0 °F - 53.6 °F 44% 29.92 in - Variable 1.2 mph - N/A   Clear
9:00 PM 78 °F - 53 °F 32% 29.91 in 6 mi NNW 1.2 mph - -  
9:20 PM 80.6 °F - 42.8 °F 26% 29.92 in - North 4.6 mph - N/A   Clear
9:50 PM 78.8 °F - 41.0 °F 26% 29.95 in - NNW 4.6 mph - N/A   Clear
10:20 PM 77.0 °F - 42.8 °F 29% 29.95 in - Variable 2.3 mph - N/A   Clear
10:50 PM 73.4 °F - 42.8 °F 33% 29.95 in - NNW 1.2 mph - N/A   Clear
11:20 PM 77.0 °F - 41.0 °F 28% 29.95 in - NW 4.6 mph - N/A   Clear
11:50 PM 77.0 °F - 39.2 °F 26% 29.98 in - NW 9.2 mph - N/A   Clear